This demonstration page uses our WeatherBlox Daily Observations layout. Learn more.

Left ArrowRight Arrow

38.80484, -77.04692

Hourly Observations for February 3, 2016

Temp ( °F °C ) Dew Point ( °F °C ) Humidity (%) Winds ( mph kmh ) Pressure ( in mb ) Visibility ( mi km ) Precip ( " mm )
12:52 am 00:52 Cloudy 43 6.1 35 1.7 74 74 SSE 7 11 30.24 1024 10 16 0.00 0.00
1:52 am 01:52 Cloudy 43 6.1 36 2.2 76 76 SSE 5 7 30.23 1024 10 16 0.00 0.00
2:52 am 02:52 Cloudy 44 6.7 36 2.2 73 73 Calm 30.20 1023 10 16 0.00 0.00
3:52 am 03:52 Cloudy 44 6.7 37 2.8 76 76 Calm 30.18 1022 10 16 0.00 0.00
4:22 am 04:22 Cloudy with Light Rain 43 6 37 3 81 81 ENE 5 7 30.15 1021 10 16 0.00 0.00
4:52 am 04:52 Cloudy with Light Rain 42 5.6 38 3.3 85 85 NNE 6 9 30.15 1021 10 16 0.00 0.03
5:52 am 05:52 Cloudy with Light Rain 41 5 38 3.3 89 89 ENE 5 7 30.11 1020 10 16 0.00 0.03
6:52 am 06:52 Cloudy with Light Rain 43 6.1 40 4.4 89 89 Calm 30.11 1020 10 16 0.00 0.03
7:04 am 07:04 Cloudy with Light Rain 43 6 39 4 87 87 NNE 3 6 30.12 1020 10 16 0.00 0.00
7:52 am 07:52 Cloudy 42 5.6 39 3.9 89 89 ENE 5 7 30.07 1018 10 16 0.00 0.03
8:52 am 08:52 Cloudy with Light Rain 45 7.2 41 5 86 86 WSW 5 7 30.06 1018 10 16 0.00 0.03
9:52 am 09:52 Cloudy with Light Rain 43 6.1 41 5 93 93 S 7 11 30.03 1017 10 16 0.01 0.25
10:52 am 10:52 Cloudy 44 6.7 42 5.6 93 93 S 8 13 30.00 1016 10 16 0.00 0.03
10:57 am 10:57 Cloudy 44 6.7 42 5.6 93 93 S 7 11 30.00 1016 10 16 0.00 0.00
11:52 am 11:52 Cloudy 48 8.9 45 7.2 89 89 WSW 5 7 29.96 1015 10 16 0.00 0.00
12:25 pm 12:25 Cloudy with Light Rain 50 10 47 8.3 89 89 WNW 6 9 29.94 1014 8 13 0.00 0.03
12:32 pm 12:32 Cloudy with Rain 50 10 48 9 94 94 NW 8 13 29.94 1014 3 4 0.00 0.00
12:37 pm 12:37 Cloudy with Rain 50 10 48 8.9 93 93 NW 9 15 29.94 1014 2 3 0.02 0.51
12:52 pm 12:52 Cloudy with Heavy Rain 49 9.4 47 8.3 93 93 NNW 8 13 29.94 1014 2 3 0.09 2.29
1:06 pm 13:06 Cloudy with Heavy Rain 48 9 46 8 94 94 WNW 18 30 29.97 1015 2 2 0.00 0.00
1:11 pm 13:11 Cloudy with Rain 48 8.9 45 7.2 89 89 W 9 15 29.97 1015 2 3 0.13 3.30
1:19 pm 13:19 Cloudy with Heavy Rain 48 8.9 45 7.2 89 89 VRB 6 9 29.97 1015 3 4 0.17 4.32
1:24 pm 13:24 Cloudy with Rain 48 9 46 8 94 94 Calm 29.97 1015 3 5 0.00 0.00
1:31 pm 13:31 Cloudy with Rain 47 8.3 45 7.2 93 93 ESE 8 13 29.94 1014 3 5 0.21 5.33
1:33 pm 13:33 Cloudy with Heavy Rain 46 7.8 44 6.7 93 93 ESE 8 13 29.94 1014 2 3 0.21 5.33
1:37 pm 13:37 Cloudy with Heavy Rain 45 7.2 44 6.7 97 97 ESE 10 17 29.94 1014 2 3 0.25 6.35
1:44 pm 13:44 Cloudy with Rain 46 8 45 7 93 93 SE 10 17 29.91 1013 3 4 0.00 0.00
1:52 pm 13:52 Cloudy with Light Rain 47 8.3 46 7.8 97 97 S 8 13 29.91 1013 4 6 0.29 7.37
2:01 pm 14:01 Cloudy with Light Rain 48 8.9 46 7.8 93 93 SSW 8 13 29.91 1013 8 13 0.01 0.25
2:52 pm 14:52 Cloudy with Light Rain 48 8.9 47 8.3 96 96 S 7 11 29.91 1013 10 16 0.03 0.76
3:20 pm 15:20 Cloudy with Light Rain 46 8 46 8 100 100 Calm 29.91 1013 10 16 0.00 0.00
3:33 pm 15:33 Cloudy with Light Rain 50 10 49 9.4 96 96 S 6 9 29.88 1012 10 16 0.02 0.51
3:39 pm 15:39 Cloudy with Light Rain 50 10 49 9.4 96 96 SSE 5 7 29.88 1012 10 16 0.03 0.76
3:52 pm 15:52 Cloudy with Light Rain 51 10.6 50 10 96 96 S 3 6 29.88 1012 8 13 0.03 0.76
4:03 pm 16:03 Cloudy with Light Rain 54 12 54 12 100 100 SSW 5 7 29.88 1012 10 16 0.00 0.00
4:23 pm 16:23 Cloudy with Light Rain 52 11.1 52 11.1 100 100 S 3 6 29.88 1012 8 13 0.01 0.25
4:52 pm 16:52 Cloudy with Light Rain 52 11.1 52 11.1 100 100 S 7 11 29.87 1012 8 13 0.02 0.51
5:48 pm 17:48 Cloudy with Light Rain 55 13 54 12 94 94 SSE 12 19 29.83 1010 10 16 0.00 0.00
5:52 pm 17:52 Cloudy 55 12.8 54 12.2 96 96 S 9 15 29.78 1009 10 16 0.03 0.76
6:14 pm 18:14 Mostly Cloudy 55 13 55 13 100 100 W 12 19 29.85 1011 10 16 0.00 0.00
6:52 pm 18:52 Mostly Cloudy 56 13.3 54 12.2 93 93 SSW 13 20 29.88 1012 10 16 0.00 0.00
7:52 pm 19:52 Mostly Cloudy 56 13.3 54 12.2 93 93 SSW 13 20 29.90 1013 10 16 0.00 0.00
7:55 pm 19:55 Mostly Cloudy 56 13.3 54 12.2 93 93 S 12 19 29.91 1013 10 16 0.00 0.00
8:27 pm 20:27 Cloudy 55 12.8 54 12.2 96 96 SSW 12 19 29.91 1013 10 16 0.00 0.00
8:52 pm 20:52 Cloudy 56 13.3 55 12.8 97 97 S 10 17 29.91 1013 10 16 0.00 0.00
9:16 pm 21:16 Cloudy with Mist and Fog 54 12 52 11 94 94 S 13 20 29.91 1013 1 2 0.00 0.00
9:37 pm 21:37 Cloudy with Mist and Fog 56 13.3 55 12.8 97 97 S 13 20 29.91 1013 3 5 0.00 0.00
9:52 pm 21:52 Cloudy with Mist and Fog 56 13.3 55 12.8 97 97 S 13 20 29.90 1013 3 4 0.00 0.00
9:54 pm 21:54 Cloudy with Mist and Fog 55 13 55 13 100 100 S 13 20 29.91 1013 2 2 0.00 0.00
9:57 pm 21:57 Cloudy with Mist and Fog 56 13.3 55 12.8 97 97 S 10 17 29.91 1013 1 2 0.00 0.00
10:09 pm 22:09 Mostly Cloudy with Fog 54 12.2 54 12.2 100 100 S 14 22 29.91 1013 1 1 0.00 0.00
10:17 pm 22:17 Mostly Cloudy with Fog 54 12 52 11 94 94 S 12 19 29.91 1013 0 0 0.00 0.00
10:52 pm 22:52 Mostly Cloudy with Fog 53 11.7 53 11.7 100 100 S 10 17 29.90 1012 0 0 0.00 0.00
11:39 pm 23:39 Mostly Cloudy with Fog 54 12.2 54 12.2 100 100 S 14 22 29.88 1012 0 0 0.00 0.00
11:41 pm 23:41 Mostly Cloudy with Fog 55 12.8 54 12.2 96 96 S 14 22 29.88 1012 1 1 0.00 0.00
11:52 pm 23:52 Cloudy with Drizzle 55 12.8 54 12.2 96 96 S 14 22 29.89 1012 2 2 0.00 0.03

Powered by AerisWeather